Torna al catalogo

STARLINK-36951

AttivoComunicazioniVLEO
NORAD 67990·PAYLOAD·🇺🇸 United States

Lanciato Feb 27, 2026 da Vandenberg Space Force Base

Loading…

Prossimi Passaggi (prossime 24 ore)

TLE

AggiornatoSource: CelesTrak SupGP

Epoca: Sep 14, 2026, 23:18 UTC

1 67990C 26039E   26257.97131944  .00042756  00000+0  15483-2 0  2574
2 67990  43.0005  60.1581 0001644 274.4636 295.5794 15.27562763    19

Traccia STARLINK-36951 in tempo reale con AllMySat

Download on the App Store